TimePDT,TemperatureF,Dew PointF,Humidity,Sea Level PressureIn,VisibilityMPH,Wind Direction,Wind SpeedMPH,Gust SpeedMPH,PrecipitationIn,Events,Conditions,WindDirDegrees,DateUTC
12:53 AM,39.9,37.0,89,30.01,10.0,East,8.1,-,N/A,,Clear,90,2013-05-23 07:53:00
1:53 AM,41.0,36.0,82,30.01,10.0,ESE,6.9,-,N/A,,Clear,110,2013-05-23 08:53:00
2:53 AM,41.0,36.0,82,30.01,10.0,East,6.9,-,N/A,,Clear,100,2013-05-23 09:53:00
3:53 AM,42.1,35.1,76,30.01,10.0,East,8.1,-,N/A,,Clear,100,2013-05-23 10:53:00
4:53 AM,41.0,35.1,79,30.00,10.0,East,5.8,-,N/A,,Clear,100,2013-05-23 11:53:00
5:53 AM,41.0,35.1,79,30.00,10.0,East,9.2,-,N/A,,Clear,90,2013-05-23 12:53:00
6:53 AM,48.0,37.0,66,30.01,10.0,Calm,Calm,-,N/A,,Clear,0,2013-05-23 13:53:00
7:53 AM,50.0,39.0,66,30.02,10.0,Calm,Calm,-,N/A,,Clear,0,2013-05-23 14:53:00
8:53 AM,52.0,42.1,69,30.03,10.0,Calm,Calm,-,N/A,,Clear,0,2013-05-23 15:53:00
9:53 AM,54.0,39.9,59,30.02,10.0,Calm,Calm,-,N/A,,Clear,0,2013-05-23 16:53:00
10:53 AM,55.9,37.0,49,30.01,10.0,West,5.8,-,N/A,,Clear,270,2013-05-23 17:53:00
11:53 AM,59.0,37.0,44,30.01,10.0,Variable,5.8,-,N/A,,Clear,0,2013-05-23 18:53:00
12:53 PM,60.1,37.0,42,29.99,10.0,Variable,5.8,-,N/A,,Partly Cloudy,0,2013-05-23 19:53:00
1:53 PM,61.0,34.0,36,29.98,10.0,Variable,3.5,-,N/A,,Clear,0,2013-05-23 20:53:00
2:53 PM,63.0,33.1,33,29.97,10.0,Variable,5.8,-,N/A,,Clear,0,2013-05-23 21:53:00
3:53 PM,66.0,32.0,28,29.96,10.0,Variable,5.8,-,N/A,,Clear,0,2013-05-23 22:53:00
4:53 PM,64.0,32.0,30,29.95,10.0,Calm,Calm,-,N/A,,Clear,0,2013-05-23 23:53:00
5:53 PM,64.9,30.0,27,29.95,10.0,NE,3.5,-,N/A,,Scattered Clouds,50,2013-05-24 00:53:00
6:53 PM,64.0,35.1,34,29.94,10.0,NNE,6.9,-,0.00,Rain,Light Rain,20,2013-05-24 01:53:00
7:53 PM,59.0,35.1,41,29.95,10.0,NNW,6.9,-,0.00,,Partly Cloudy,330,2013-05-24 02:53:00
8:53 PM,57.0,37.0,47,29.96,10.0,East,3.5,-,N/A,,Clear,100,2013-05-24 03:53:00
9:53 PM,52.0,39.0,61,29.98,10.0,SSW,6.9,-,N/A,,Clear,200,2013-05-24 04:53:00
10:53 PM,53.1,37.9,57,29.98,10.0,SSE,6.9,-,N/A,,Clear,160,2013-05-24 05:53:00
11:53 PM,46.9,39.0,74,29.97,10.0,ESE,6.9,-,N/A,,Clear,120,2013-05-24 06:53:00